www.pogodaiklimat.ru
ПОГОДА в Сергаче
Время
(UTC), дата
06 27.06
09 27.06
12 27.06
15 27.06
18 27.06
21 27.06
00 28.06
03 28.06
06 28.06
09 28.06
12 28.06
15 28.06
18 28.06
21 28.06
00 29.06
03 29.06
06 29.06
09 29.06
12 29.06
15 29.06
18 29.06
21 29.06
00 30.06
03 30.06
06 30.06
09 30.06
12 30.06
15 30.06
18 30.06
21 30.06
00 1.07
03 1.07
06 1.07
09 1.07
12 1.07
15 1.07
18 1.07
21 1.07
00 2.07
03 2.07
06 2.07
09 2.07
12 2.07
15 2.07
18 2.07
21 2.07
00 3.07
03 3.07
06 3.07
09 3.07
12 3.07
15 3.07
18 3.07
21 3.07
00 4.07
03 4.07
Ветер
(напр.,м/с)
Видим. Явления Облачность Т
(С)
Тd
(С)
f
(%)
Тe
(С)
Тes
(С)
Комфортность P
(гПа)
Po
(гПа)
Тmin
(С)
Tmax
(С)
R
(мм)
R24
(мм)
S
(см)
З 3-8
{8}
20 км {гроза} 3/0
[Ci fib]
+23.1 +16.3 66 +28 +36 душно 1012.3 997.9
З 5-10
{14}
20 км 8/4 600 м
[Cu med, cong Ac cuf]
+27.1 +15.8 50 +30 +33 душно 1010.1 995.9
З 8-14
{16}
20 км 6/4 600 м
[Cu med, cong Ac cuf]
+28.3 +11.1 34 +29 +30 жарко 1007.6 993.4
СЗ 6-15
{15}
20 км 6/4 600 м
[Cu med, cong Ac cuf]
+27.0 +10.4 35 +28 +28 жарко 1006.5 992.3 +28.9
СЗ 3-6
{16}
500 м ливневые осадки, в посл. час гроза 10/10 300 м
[Frnb Ns]
+16.5 +15.4 93 +16 +16 1007.5 992.8
СЗ 2-3
{7}
20 км в посл. час гроза {ливн. дождь} 10/6 600 м
[Cu med, cong As trans]
+15.0 +14.2 95 +15 +15 1007.8 993.0
СВ 2-4
{4}
20 км {гроза} 10/8 600 м
[Sc Ac As]
+14.5 +13.8 96 +14 +14 1008.5 993.7
СВ 1-2
{5}
20 км 8/4 1000 м
[Sc diur, vesp Cs]
+14.4 +11.7 84 +15 +16 1009.6 994.8 +12.1 4
С 2-6
{6}
20 км 8/4 600 м
[Cu med, cong Ac cuf Ci sp]
+19.7 +10.1 54 +21 +26 комфорт 1009.9 995.3
СЗ 2-6
{9}
20 км 9/5 600 м
[Cu med, cong Ac cuf Cs]
+21.8 +9.0 44 +23 +28 комфорт 1009.5 995.0
С 2-8
{8}
20 км 8/5 600 м
[Cu med, cong Ac cuf Cs]
+24.2 +9.3 39 +25 +29 комфорт 1008.5 994.1
С 2-4
{8}
20 км 9/3 1000 м
[Cu med, cong Ac cuf Cs]
+21.8 +8.4 42 +23 +24 комфорт 1008.0 993.5 +24.2
СВ 2-4
{6}
20 км 8/3 600 м
[Sc Ac lent]
+14.7 +9.0 69 +14 +14 1008.3 993.5
СВ 3-5
{5}
20 км 3/3 600 м
[Sc diur, vesp Ac cuf]
+12.1 +7.7 74 +11 +11 1008.8 993.8
СВ 2-4
{6}
20 км 4/0
[Ac cuf]
+10.0 +7.3 83 +8 +8 1008.9 993.8
СВ 3-5
{6}
20 км 6/0
[Ac lent]
+11.5 +7.7 77 +10 +11 1009.1 994.1 +9.7
СВ 3-6
{7}
20 км 4/3 600 м
[Cu med, cong Ci fib]
+17.5 +6.9 50 +18 +24 1008.8 994.1
С 2-4
{7}
20 км 8/5 600 м
[Cu med, cong Ac cuf]
+19.1 +7.2 46 +20 +25 1009.5 994.9
С 2-7
{7}
20 км 8/6 600 м
[Cu med, cong Ac lent]
+17.1 +6.4 49 +17 +20 1009.7 994.9
С 2-5
{8}
20 км 4/3 600 м
[Cu med, cong Ac cuf]
+17.0 +4.8 44 +17 +19 1009.8 995.1 +21.9
СВ 2-3
{6}
20 км ясно +10.0 +5.5 74 +9 +9 1011.5 996.4
С 2-4
{5}
20 км ясно +8.2 +4.6 78 +6 +6 1012.2 996.9
штиль 0-2
{4}
20 км 1/0
[Ci fib]
+4.9 +3.2 89 +4 +4 1012.5 997.1
ЮЗ 1-1
{2}
20 км ясно +8.6 +6.1 84 +8 +11 1013.4 998.2 +4.7
СВ 2-4
{4}
20 км 6/3 600 м
[Cu med, cong Ac cuf]
+17.6 +5.7 46 +18 +23 1013.0 998.2
СВ 2-4
{6}
20 км 9/6 600 м
[Sc diur, vesp Ac lent]
+16.9 +5.1 46 +17 +20 1013.3 998.5
С 1-5
{5}
20 км 8/4 600 м
[Sc diur, vesp Ac lent Ci fib]
+20.9 +5.0 35 +23 +28 комфорт 1012.9 998.3
ЮВ 2-4
{5}
20 км 8/4 600 м
[Sc diur, vesp Ac cuf]
+18.9 +4.0 37 +20 +20 1012.7 997.9 +21.3
В 1-1
{4}
20 км 8/1 600 м
[Cu med, cong Cs]
+11.6 +5.6 67 +12 +12 1013.2 998.1
В 2-3
{3}
20 км 3/0
[Ci ing]
+8.8 +5.6 80 +7 +7 1013.3 998.1
В 2-3
{3}
20 км 3/0
[Cs]
+7.7 +4.7 81 +6 +6 1013.6 998.3
В 1-2
{4}
20 км 9/0
[Ac As Cs]
+11.2 +7.5 78 +11 +13 1013.3 998.2 +7.3
Ю 3-5
{6}
20 км 3/0
[Ac As Ci]
+18.5 +9.4 55 +19 +26 1012.3 997.6
Ю 4-8
{9}
20 км 8/4 600 м
[Sc diur, vesp Ac und]
+22.8 +10.2 45 +25 +28 комфорт 1010.7 996.3
Ю 4-7
{9}
10 км в посл. час ливневой дождь 9/8 600 м
[Cu med, cong Ac cuf]
+20.7 +11.8 57 +23 +24 комфорт 1010.2 995.7
ЮЗ 2-5
{8}
10 км в посл. час ливневой дождь 10/6 600 м
[Cb calv Ac cuf]
+17.5 +15.0 85 +18 +18 1009.9 995.2 +22.8 1
ЮЗ 2-3
{7}
20 км {ливн. дождь} 10/10 600 м
[Cu med, cong]
+17.5 +16.1 91 +18 +18 1009.5 994.9
З 1-1
{4}
20 км {ливн. дождь} 9/9 600 м
[Sc]
+16.4 +15.3 93 +17 +17 1010.0 995.3
штиль 0
{2}
20 км {ливн. дождь} 10/0
[As trans]
+16.0 +15.0 94 +16 +16 1010.3 995.5
З 2-3
{4}
500 м туман ?/? +15.3 +14.6 96 +15 +15 1011.1 996.2 +14.9 1
З 2-4
{5}
20 км {туман} 3/1 1000 м
[Cu hum Ci fib]
+21.6 +16.0 70 +25 +34 комфорт 1011.5 997.0
З 2-6
{7}
20 км 9/8 600 м
[Cu med, cong Ac cuf Cs]
+24.8 +13.8 50 +27 +29 жарко 1011.7 997.3
З 3-5
{8}
20 км {ливн. дождь} 9/4 1000 м
[Cu med, cong Ac cuf Cc]
+25.6 +13.1 46 +28 +31 жарко 1011.5 997.2
СЗ 2-5
{8}
20 км 8/3 600 м
[Cu med, cong Ac cuf Cc]
+24.3 +13.6 51 +27 +28 жарко 1012.1 997.7 +27.2 0.5
штиль 0
{5}
20 км 4/3 600 м
[Sc Ac As Cs]
+19.0 +13.9 72 +20 +20 1013.0 998.3
штиль 0
{1}
20 км 6/0
[Ac cuf]
+16.5 +14.6 89 +16 +16 1013.6 998.8
штиль 0-1
{2}
20 км 10/6 600 м
[St As trans]
+16.1 +13.8 86 +16 +16 1013.8 999.0
В 1-2
{3}
20 км 8/5
[St Cs]
+17.3 +14.7 85 +18 +20 1014.3 999.6 +16.0
ЮВ 1-2
{3}
20 км 9/3 600 м
[Cu med, cong Ac trans Ci fib]
+21.4 +16.4 73 +25 +30 комфорт 1014.6 1000.0
ЮЗ 2-6
{7}
20 км 9/5 600 м
[Cu med, cong Ac As Cs]
+27.7 +16.7 51 +31 +36 душно 1014.4 1000.2
ЮЗ 4-7
{9}
20 км 3/0
[Ci ing]
+28.2 +15.6 46 +31 +38 душно 1013.9 999.7
штиль 0
{11}
20 км 9/5 300 м
[Cb calv Ac cuf Ci sp]
+23.1 +17.4 70 +28 +29 душно 1014.1 999.6 +28.5
ЮВ 1-1
{3}
20 км 9/3 600 м
[Cu med, cong Ac cuf Cs]
+20.7 +17.9 84 +26 +26 душно 1014.8 1000.3
З 1-2
{2}
20 км 8/0
[Ac cuf Cs]
+19.6 +17.3 87 +23 +23 комфорт 1015.0 1000.4
З 1-1
{2}
20 км 10/0
[Ac As Cs]
+18.4 +16.7 90 +20 +20 1015.6 1000.8
Ю 1-2
{2}
20 км 8/0
[Ac lent Ci fib]
+19.8 +16.7 82 +23 +25 комфорт 1015.1 1000.5 +17.9
Местоположение метеостанции Сергач (Нижегородская область, Россия): широта 55.53 долгота 45.50 высота над уровнем моря 125 м.
В архиве по умолчанию представлена погода в Сергаче за последнюю неделю. Архивные данные за месяц целиком и за предыдущие месяцы, начиная с января 2011 года, Вы можете получить, выбрав интересующий диапазон дат из раскрывающегося списка и нажав кнопку "Найти!".
*Определитесь, кто Вы:
Внимание! Время в таблицах - всемирное. Для получения местного времени необходимо прибавить поправку, которая равна 3 ч.
Смотрите также архив погоды в соседних городах и на ближайших метеорологических станциях:
Партнеры нашего сайта:      
Пояснения к столбцам:
  • Ветер - указаны скорость ветра в м/с - средняя за 10 мин, порывы в срок и между сроками (в фигурных скобках) и направление, откуда дует ветер: С - северный,
  • СВ - северо-восточный, В - восточный, ЮВ - юго-восточный, Ю - южный, ЮЗ - юго-западный, З - западный, СЗ - северо-западный.
  • Видимость - горизонтальная дальность видимости в метрах или километрах. При видимости от 1 до 10 км при отсутствии осадков обычно наблюдается дымка, при ухудшении видимости до 1 км и менее - туман. В сухую погоду видимость может ухудшаться дымом, пылью или мглою.
  • Явления - указаны атмосферные явления, наблюдавшиеся в срок или в последний час перед сроком; фигурными скобками обозначены явления, наблюдавшиеся между сроками (за 1-3 часа до срока); квадратными скобками обозначены град или гололедные отложения с указанием их диаметра в мм.
  • Облачность - указаны через наклонную черту общая и нижняя облачность в баллах и высота нижней границы облаков в метрах; квадратными скобками обозначены формы облаков: Ci - перистые, Cs - перисто-слоистые, Cc - перисто-кучевые, Ac - высококучевые, As - высокослоистые, Sc - слоисто-кучевые, Ns - слоисто-дождевые, Cu - кучевые, Cb - кучево-дождевые. Подробнее классификацию облаков см. в Атласе облаков (PDF).
  • T - Температура воздуха - температура, измеренная на высоте 2 м над землей.
  • Td - Температура точки росы - температура, при понижении до которой содержащийся в воздухе водяной пар достигнет насыщения.
  • f - Относительная влажность воздуха - влажноcть воздуха, измеренная на высоте 2 м над землей.
  • Te - Эффективная температура - температура, которую ощущает одетый по сезону человек в тени. Характеристика душности погоды. При расчете учитывается влияние влажности воздуха и скорости ветра на теплоощущения человека.
  • Tes - Эффективная температура на солнце - температура, которую ощущает человек, с поправкой на солнечный нагрев. Характеристика знойности погоды. Зависит от высоты солнца над горизонтом, облачности и скорости ветра. Ночью, в пасмурную погоду, а также при ветре 12 м/с и более поправка равна нулю.
  • P - Атмосферное давление - приведенное к уровню моря атмосферное давление.
  • Po - Атмосферное давление - измеренное на уровне метеостанции атмосферное давление.
  • Tmin - Минимальная температура - минимум температуры воздуха на высоте 2 м над землей.
  • Tmax - Максимальная температура - максимум температуры воздуха на высоте 2 м над землей.
  • R - Количество осадков - Количество выпавших осадков за период времени, мм. При наведении курсора мыши на число - период времени, за который выпало указанное количество осадков.
  • R24 - Количество осадков - Количество выпавших осадков за 24 часа, мм.
  • S - Снежный покров - Высота снежного покрова, см. При наведении курсора мыши на число - состояние снежного покрова и степень покрытия местности в баллах.